owner,sensor,date,latitude,longitude,vertical_datum,mass_concentration_of_oxygen_in_sea_water,qcFlag 
SCCF RECON,ioos:station:SCCF:13:1,2010-04-01T00:00:00Z,26.5255,-82.0032,2.09,7.64,1111122 
SCCF RECON,ioos:station:SCCF:13:1,2010-04-01T01:00:00Z,26.5255,-82.0032,2.013,7.55,1111122 
SCCF RECON,ioos:station:SCCF:13:1,2010-04-01T02:00:00Z,26.5255,-82.0032,1.96,7.53,1111122 
SCCF RECON,ioos:station:SCCF:13:1,2010-04-01T03:00:00Z,26.5255,-82.0032,1.97,7.48,1111122 
SCCF RECON,ioos:station:SCCF:13:1,2010-04-01T04:00:00Z,26.5255,-82.0032,2.107,7.42,1111122 
SCCF RECON,ioos:station:SCCF:13:1,2010-04-01T05:00:00Z,26.5255,-82.0032,2.23,7.36,1111122 
SCCF RECON,ioos:station:SCCF:13:1,2010-04-01T06:00:00Z,26.5255,-82.0032,2.3,7.09,1111122 
SCCF RECON,ioos:station:SCCF:13:1,2010-04-01T07:00:00Z,26.5255,-82.0032,2.35,7.17,1111122 
SCCF RECON,ioos:station:SCCF:13:1,2010-04-01T08:00:00Z,26.5255,-82.0032,2.37,7.19,1111122 
SCCF RECON,ioos:station:SCCF:13:1,2010-04-01T09:00:00Z,26.5255,-82.0032,2.34,7.0,1111122 
SCCF RECON,ioos:station:SCCF:13:1,2010-04-01T10:00:00Z,26.5255,-82.0032,2.271,6.93,1111122 
SCCF RECON,ioos:station:SCCF:13:1,2010-04-01T11:00:00Z,26.5255,-82.0032,2.201,7.03,1111122 
SCCF RECON,ioos:station:SCCF:13:1,2010-04-01T12:00:00Z,26.5255,-82.0032,2.161,6.67,1111122 
SCCF RECON,ioos:station:SCCF:13:1,2010-04-01T13:00:00Z,26.5255,-82.0032,2.135,6.98,1111122 
SCCF RECON,ioos:station:SCCF:13:1,2010-04-01T14:00:00Z,26.5255,-82.0032,2.145,7.24,1111122 
SCCF RECON,ioos:station:SCCF:13:1,2010-04-01T15:00:00Z,26.5255,-82.0032,2.241,7.42,1111122 
SCCF RECON,ioos:station:SCCF:13:1,2010-04-01T16:00:00Z,26.5255,-82.0032,2.377,6.98,1111122 
SCCF RECON,ioos:station:SCCF:13:1,2010-04-01T17:00:00Z,26.5255,-82.0032,2.476,7.2,1111122 
SCCF RECON,ioos:station:SCCF:13:1,2010-04-01T18:00:00Z,26.5255,-82.0032,2.539,7.55,1111122 
SCCF RECON,ioos:station:SCCF:13:1,2010-04-01T19:00:00Z,26.5255,-82.0032,2.57,7.62,1111122 
SCCF RECON,ioos:station:SCCF:13:1,2010-04-01T20:00:00Z,26.5255,-82.0032,2.559,7.81,1111122 
SCCF RECON,ioos:station:SCCF:13:1,2010-04-01T21:00:00Z,26.5255,-82.0032,2.47,7.79,1111122 
SCCF RECON,ioos:station:SCCF:13:1,2010-04-01T22:00:00Z,26.5255,-82.0032,2.34,7.77,1111122 
SCCF RECON,ioos:station:SCCF:13:1,2010-04-01T23:00:00Z,26.5255,-82.0032,2.238,7.78,1111122 
SCCF RECON,ioos:station:SCCF:13:1,2010-04-02T00:00:00Z,26.5255,-82.0032,2.17,7.73,1111122 
SCCF RECON,ioos:station:SCCF:13:1,2010-04-02T01:00:00Z,26.5255,-82.0032,2.09,7.76,1111122 
SCCF RECON,ioos:station:SCCF:13:1,2010-04-02T02:00:00Z,26.5255,-82.0032,2.01,7.74,1111122 
SCCF RECON,ioos:station:SCCF:13:1,2010-04-02T03:00:00Z,26.5255,-82.0032,1.961,7.69,1111122 
SCCF RECON,ioos:station:SCCF:13:1,2010-04-02T04:00:00Z,26.5255,-82.0032,2.0,7.68,1111122 
SCCF RECON,ioos:station:SCCF:13:1,2010-04-02T05:00:00Z,26.5255,-82.0032,2.13,7.83,1111122 
SCCF RECON,ioos:station:SCCF:13:1,2010-04-02T06:00:00Z,26.5255,-82.0032,2.22,7.75,1111122 
SCCF RECON,ioos:station:SCCF:13:1,2010-04-02T07:00:00Z,26.5255,-82.0032,2.28,7.06,1111122 
SCCF RECON,ioos:station:SCCF:13:1,2010-04-02T08:00:00Z,26.5255,-82.0032,2.319,7.09,1111122 
SCCF RECON,ioos:station:SCCF:13:1,2010-04-02T09:00:00Z,26.5255,-82.0032,2.32,7.02,1111122 
SCCF RECON,ioos:station:SCCF:13:1,2010-04-02T10:00:00Z,26.5255,-82.0032,2.29,6.85,1111122 
SCCF RECON,ioos:station:SCCF:13:1,2010-04-02T11:00:00Z,26.5255,-82.0032,2.24,6.94,1111122 
SCCF RECON,ioos:station:SCCF:13:1,2010-04-02T12:00:00Z,26.5255,-82.0032,2.21,6.91,1111122 
SCCF RECON,ioos:station:SCCF:13:1,2010-04-02T13:00:00Z,26.5255,-82.0032,2.209,6.7,1111122 
SCCF RECON,ioos:station:SCCF:13:1,2010-04-02T14:00:00Z,26.5255,-82.0032,2.215,6.74,1111122 
SCCF RECON,ioos:station:SCCF:13:1,2010-04-02T15:00:00Z,26.5255,-82.0032,2.29,5.93,1111122 
SCCF RECON,ioos:station:SCCF:13:1,2010-04-02T16:00:00Z,26.5255,-82.0032,2.396,6.76,1111122 
SCCF RECON,ioos:station:SCCF:13:1,2010-04-02T17:00:00Z,26.5255,-82.0032,2.481,7.22,1111122 
SCCF RECON,ioos:station:SCCF:13:1,2010-04-02T18:00:00Z,26.5255,-82.0032,2.538,7.52,1111122 
SCCF RECON,ioos:station:SCCF:13:1,2010-04-02T19:00:00Z,26.5255,-82.0032,2.578,7.74,1111122 
SCCF RECON,ioos:station:SCCF:13:1,2010-04-02T20:00:00Z,26.5255,-82.0032,2.6,7.85,1111122 
SCCF RECON,ioos:station:SCCF:13:1,2010-04-02T21:00:00Z,26.5255,-82.0032,2.57,7.88,1111122 
SCCF RECON,ioos:station:SCCF:13:1,2010-04-02T22:00:00Z,26.5255,-82.0032,2.47,7.68,1111122 
SCCF RECON,ioos:station:SCCF:13:1,2010-04-02T23:00:00Z,26.5255,-82.0032,2.36,7.86,1111122 
SCCF RECON,ioos:station:SCCF:13:1,2010-04-03T00:00:00Z,26.5255,-82.0032,2.278,7.72,1111122 
SCCF RECON,ioos:station:SCCF:13:1,2010-04-03T01:00:00Z,26.5255,-82.0032,2.201,7.6,1111122 
SCCF RECON,ioos:station:SCCF:13:1,2010-04-03T02:00:00Z,26.5255,-82.0032,2.14,7.72,1111122 
SCCF RECON,ioos:station:SCCF:13:1,2010-04-03T03:00:00Z,26.5255,-82.0032,2.071,7.73,1111122 
SCCF RECON,ioos:station:SCCF:13:1,2010-04-03T04:00:00Z,26.5255,-82.0032,2.032,7.61,1111122 
SCCF RECON,ioos:station:SCCF:13:1,2010-04-03T05:00:00Z,26.5255,-82.0032,2.11,7.58,1111122 
SCCF RECON,ioos:station:SCCF:13:1,2010-04-03T06:00:00Z,26.5255,-82.0032,2.22,7.63,1111122 
SCCF RECON,ioos:station:SCCF:13:1,2010-04-03T07:00:00Z,26.5255,-82.0032,2.27,7.39,1111122 
SCCF RECON,ioos:station:SCCF:13:1,2010-04-03T08:00:00Z,26.5255,-82.0032,2.3,6.93,1111122 
SCCF RECON,ioos:station:SCCF:13:1,2010-04-03T09:00:00Z,26.5255,-82.0032,2.32,6.84,1111122 
SCCF RECON,ioos:station:SCCF:13:1,2010-04-03T10:00:00Z,26.5255,-82.0032,2.32,6.82,1111122 
SCCF RECON,ioos:station:SCCF:13:1,2010-04-03T11:00:00Z,26.5255,-82.0032,2.329,6.55,1111122 
SCCF RECON,ioos:station:SCCF:13:1,2010-04-03T12:00:00Z,26.5255,-82.0032,2.324,6.51,1111122 
SCCF RECON,ioos:station:SCCF:13:1,2010-04-03T13:00:00Z,26.5255,-82.0032,2.31,6.42,1111122 
SCCF RECON,ioos:station:SCCF:13:1,2010-04-03T14:00:00Z,26.5255,-82.0032,2.29,6.51,1111122 
SCCF RECON,ioos:station:SCCF:13:1,2010-04-03T15:00:00Z,26.5255,-82.0032,2.319,6.15,1111122 
SCCF RECON,ioos:station:SCCF:13:1,2010-04-03T16:00:00Z,26.5255,-82.0032,2.377,6.38,1111122 
SCCF RECON,ioos:station:SCCF:13:1,2010-04-03T17:00:00Z,26.5255,-82.0032,2.443,7.05,1111122 
SCCF RECON,ioos:station:SCCF:13:1,2010-04-03T18:00:00Z,26.5255,-82.0032,2.51,7.45,1111122 
SCCF RECON,ioos:station:SCCF:13:1,2010-04-03T19:00:00Z,26.5255,-82.0032,2.556,7.46,1111122 
SCCF RECON,ioos:station:SCCF:13:1,2010-04-03T20:00:00Z,26.5255,-82.0032,2.596,7.45,1111122 
SCCF RECON,ioos:station:SCCF:13:1,2010-04-03T21:00:00Z,26.5255,-82.0032,2.6,7.68,1111122 
SCCF RECON,ioos:station:SCCF:13:1,2010-04-03T22:00:00Z,26.5255,-82.0032,2.549,7.63,1111122 
SCCF RECON,ioos:station:SCCF:13:1,2010-04-03T23:00:00Z,26.5255,-82.0032,2.47,7.52,1111122 
SCCF RECON,ioos:station:SCCF:13:1,2010-04-04T00:00:00Z,26.5255,-82.0032,2.377,7.35,1111122 
SCCF RECON,ioos:station:SCCF:13:1,2010-04-04T01:00:00Z,26.5255,-82.0032,2.3,7.31,1111122 
SCCF RECON,ioos:station:SCCF:13:1,2010-04-04T02:00:00Z,26.5255,-82.0032,2.222,7.48,1111122 
SCCF RECON,ioos:station:SCCF:13:1,2010-04-04T03:00:00Z,26.5255,-82.0032,2.148,7.67,1111122 
SCCF RECON,ioos:station:SCCF:13:1,2010-04-04T04:00:00Z,26.5255,-82.0032,2.083,7.69,1111122 
SCCF RECON,ioos:station:SCCF:13:1,2010-04-04T05:00:00Z,26.5255,-82.0032,2.066,7.54,1111122 
SCCF RECON,ioos:station:SCCF:13:1,2010-04-04T06:00:00Z,26.5255,-82.0032,2.13,7.56,1111122 
SCCF RECON,ioos:station:SCCF:13:1,2010-04-04T07:00:00Z,26.5255,-82.0032,2.19,7.64,1111122 
SCCF RECON,ioos:station:SCCF:13:1,2010-04-04T08:00:00Z,26.5255,-82.0032,2.25,7.45,1111122 
SCCF RECON,ioos:station:SCCF:13:1,2010-04-04T09:00:00Z,26.5255,-82.0032,2.28,6.71,1111122 
SCCF RECON,ioos:station:SCCF:13:1,2010-04-04T10:00:00Z,26.5255,-82.0032,2.29,6.36,1111122 
SCCF RECON,ioos:station:SCCF:13:1,2010-04-04T11:00:00Z,26.5255,-82.0032,2.32,6.32,1111122 
SCCF RECON,ioos:station:SCCF:13:1,2010-04-04T12:00:00Z,26.5255,-82.0032,2.34,6.25,1111122 
SCCF RECON,ioos:station:SCCF:13:1,2010-04-04T13:00:00Z,26.5255,-82.0032,2.35,6.24,1111122 
SCCF RECON,ioos:station:SCCF:13:1,2010-04-04T14:00:00Z,26.5255,-82.0032,2.371,6.28,1111122 
SCCF RECON,ioos:station:SCCF:13:1,2010-04-04T15:00:00Z,26.5255,-82.0032,2.396,6.25,1111122 
SCCF RECON,ioos:station:SCCF:13:1,2010-04-04T16:00:00Z,26.5255,-82.0032,2.418,6.98,1111122 
SCCF RECON,ioos:station:SCCF:13:1,2010-04-04T17:00:00Z,26.5255,-82.0032,2.45,7.09,1111122 
SCCF RECON,ioos:station:SCCF:13:1,2010-04-04T18:00:00Z,26.5255,-82.0032,2.482,7.37,1111122 
SCCF RECON,ioos:station:SCCF:13:1,2010-04-04T19:00:00Z,26.5255,-82.0032,2.542,7.42,1111122 
SCCF RECON,ioos:station:SCCF:13:1,2010-04-04T20:00:00Z,26.5255,-82.0032,2.604,7.58,1111122 
SCCF RECON,ioos:station:SCCF:13:1,2010-04-04T21:00:00Z,26.5255,-82.0032,2.63,7.64,1111122 
SCCF RECON,ioos:station:SCCF:13:1,2010-04-04T22:00:00Z,26.5255,-82.0032,2.61,7.7,1111122 
SCCF RECON,ioos:station:SCCF:13:1,2010-04-04T23:00:00Z,26.5255,-82.0032,2.548,7.53,1111122 
SCCF RECON,ioos:station:SCCF:13:1,2010-04-05T00:00:00Z,26.5255,-82.0032,2.439,7.39,1111122 
SCCF RECON,ioos:station:SCCF:13:1,2010-04-05T01:00:00Z,26.5255,-82.0032,2.352,7.19,1111122 
SCCF RECON,ioos:station:SCCF:13:1,2010-04-05T02:00:00Z,26.5255,-82.0032,2.279,7.64,1111122 
SCCF RECON,ioos:station:SCCF:13:1,2010-04-05T03:00:00Z,26.5255,-82.0032,2.209,7.61,1111122 
SCCF RECON,ioos:station:SCCF:13:1,2010-04-05T04:00:00Z,26.5255,-82.0032,2.13,7.56,1111122 
SCCF RECON,ioos:station:SCCF:13:1,2010-04-05T05:00:00Z,26.5255,-82.0032,2.07,7.47,1111122 
SCCF RECON,ioos:station:SCCF:13:1,2010-04-05T06:00:00Z,26.5255,-82.0032,2.05,7.64,1111122 
SCCF RECON,ioos:station:SCCF:13:1,2010-04-05T07:00:00Z,26.5255,-82.0032,2.099,7.67,1111122 
SCCF RECON,ioos:station:SCCF:13:1,2010-04-05T08:00:00Z,26.5255,-82.0032,2.16,7.6,1111122 
SCCF RECON,ioos:station:SCCF:13:1,2010-04-05T09:00:00Z,26.5255,-82.0032,2.2,7.52,1111122 
SCCF RECON,ioos:station:SCCF:13:1,2010-04-05T10:00:00Z,26.5255,-82.0032,2.227,7.42,1111122 
SCCF RECON,ioos:station:SCCF:13:1,2010-04-05T11:00:00Z,26.5255,-82.0032,2.26,6.66,1111122 
SCCF RECON,ioos:station:SCCF:13:1,2010-04-05T12:00:00Z,26.5255,-82.0032,2.3,6.31,1111122 
SCCF RECON,ioos:station:SCCF:13:1,2010-04-05T13:00:00Z,26.5255,-82.0032,2.331,6.27,1111122 
SCCF RECON,ioos:station:SCCF:13:1,2010-04-05T14:00:00Z,26.5255,-82.0032,2.362,6.24,1111122 
SCCF RECON,ioos:station:SCCF:13:1,2010-04-05T15:00:00Z,26.5255,-82.0032,2.378,6.48,1111122 
SCCF RECON,ioos:station:SCCF:13:1,2010-04-05T16:00:00Z,26.5255,-82.0032,2.402,6.74,1111122 
SCCF RECON,ioos:station:SCCF:13:1,2010-04-05T17:00:00Z,26.5255,-82.0032,2.424,6.91,1111122 
SCCF RECON,ioos:station:SCCF:13:1,2010-04-05T18:00:00Z,26.5255,-82.0032,2.444,7.04,1111122 
SCCF RECON,ioos:station:SCCF:13:1,2010-04-05T19:00:00Z,26.5255,-82.0032,2.471,7.27,1111122 
SCCF RECON,ioos:station:SCCF:13:1,2010-04-05T20:00:00Z,26.5255,-82.0032,2.511,7.36,1111122 
SCCF RECON,ioos:station:SCCF:13:1,2010-04-05T21:00:00Z,26.5255,-82.0032,2.578,7.62,1111122 
SCCF RECON,ioos:station:SCCF:13:1,2010-04-05T22:00:00Z,26.5255,-82.0032,2.6,7.47,1111122 
SCCF RECON,ioos:station:SCCF:13:1,2010-04-05T23:00:00Z,26.5255,-82.0032,2.56,7.4,1111122 
SCCF RECON,ioos:station:SCCF:13:1,2010-04-06T00:00:00Z,26.5255,-82.0032,2.501,7.21,1111122 
SCCF RECON,ioos:station:SCCF:13:1,2010-04-06T01:00:00Z,26.5255,-82.0032,2.448,7.24,1111122 
SCCF RECON,ioos:station:SCCF:13:1,2010-04-06T02:00:00Z,26.5255,-82.0032,2.375,7.22,1111122 
SCCF RECON,ioos:station:SCCF:13:1,2010-04-06T03:00:00Z,26.5255,-82.0032,2.3,7.78,1111122 
SCCF RECON,ioos:station:SCCF:13:1,2010-04-06T04:00:00Z,26.5255,-82.0032,2.22,7.82,1111122 
SCCF RECON,ioos:station:SCCF:13:1,2010-04-06T05:00:00Z,26.5255,-82.0032,2.138,7.76,1111122 
SCCF RECON,ioos:station:SCCF:13:1,2010-04-06T06:00:00Z,26.5255,-82.0032,2.081,7.69,1111122 
SCCF RECON,ioos:station:SCCF:13:1,2010-04-06T07:00:00Z,26.5255,-82.0032,2.06,7.7,1111122 
SCCF RECON,ioos:station:SCCF:13:1,2010-04-06T08:00:00Z,26.5255,-82.0032,2.088,7.71,1111122 
SCCF RECON,ioos:station:SCCF:13:1,2010-04-06T09:00:00Z,26.5255,-82.0032,2.14,7.74,1111122 
SCCF RECON,ioos:station:SCCF:13:1,2010-04-06T10:00:00Z,26.5255,-82.0032,2.2,7.6,1111122 
SCCF RECON,ioos:station:SCCF:13:1,2010-04-06T11:00:00Z,26.5255,-82.0032,2.24,6.86,1111122 
SCCF RECON,ioos:station:SCCF:13:1,2010-04-06T12:00:00Z,26.5255,-82.0032,2.289,6.53,1111122 
SCCF RECON,ioos:station:SCCF:13:1,2010-04-06T13:00:00Z,26.5255,-82.0032,2.33,6.25,1111122 
SCCF RECON,ioos:station:SCCF:13:1,2010-04-06T14:00:00Z,26.5255,-82.0032,2.371,6.34,1111122 
SCCF RECON,ioos:station:SCCF:13:1,2010-04-06T15:00:00Z,26.5255,-82.0032,2.409,6.61,1111122 
SCCF RECON,ioos:station:SCCF:13:1,2010-04-06T16:00:00Z,26.5255,-82.0032,2.41,6.77,1111122 
SCCF RECON,ioos:station:SCCF:13:1,2010-04-06T17:00:00Z,26.5255,-82.0032,2.4,6.95,1111122 
SCCF RECON,ioos:station:SCCF:13:1,2010-04-06T18:00:00Z,26.5255,-82.0032,2.4,6.86,1111122 
SCCF RECON,ioos:station:SCCF:13:1,2010-04-06T19:00:00Z,26.5255,-82.0032,2.41,6.8,1111122 
SCCF RECON,ioos:station:SCCF:13:1,2010-04-06T20:00:00Z,26.5255,-82.0032,2.43,7.11,1111122 
SCCF RECON,ioos:station:SCCF:13:1,2010-04-06T21:00:00Z,26.5255,-82.0032,2.479,7.7,1111122 
SCCF RECON,ioos:station:SCCF:13:1,2010-04-06T22:00:00Z,26.5255,-82.0032,2.52,7.52,1111122 
SCCF RECON,ioos:station:SCCF:13:1,2010-04-06T23:00:00Z,26.5255,-82.0032,2.522,7.46,1111122 
SCCF RECON,ioos:station:SCCF:13:1,2010-04-07T00:00:00Z,26.5255,-82.0032,2.52,7.45,1111122 
SCCF RECON,ioos:station:SCCF:13:1,2010-04-07T01:00:00Z,26.5255,-82.0032,2.49,7.29,1111122 
SCCF RECON,ioos:station:SCCF:13:1,2010-04-07T02:00:00Z,26.5255,-82.0032,2.43,7.52,1111122 
SCCF RECON,ioos:station:SCCF:13:1,2010-04-07T03:00:00Z,26.5255,-82.0032,2.37,7.05,1111122 
SCCF RECON,ioos:station:SCCF:13:1,2010-04-07T04:00:00Z,26.5255,-82.0032,2.3,7.37,1111122 
SCCF RECON,ioos:station:SCCF:13:1,2010-04-07T05:00:00Z,26.5255,-82.0032,2.25,7.65,1111122 
SCCF RECON,ioos:station:SCCF:13:1,2010-04-07T06:00:00Z,26.5255,-82.0032,2.17,7.57,1111122 
SCCF RECON,ioos:station:SCCF:13:1,2010-04-07T07:00:00Z,26.5255,-82.0032,2.1,7.43,1111122 
SCCF RECON,ioos:station:SCCF:13:1,2010-04-07T08:00:00Z,26.5255,-82.0032,2.069,7.28,1111122 
SCCF RECON,ioos:station:SCCF:13:1,2010-04-07T09:00:00Z,26.5255,-82.0032,2.1,7.34,1111122 
SCCF RECON,ioos:station:SCCF:13:1,2010-04-07T10:00:00Z,26.5255,-82.0032,2.17,7.38,1111122 
SCCF RECON,ioos:station:SCCF:13:1,2010-04-07T11:00:00Z,26.5255,-82.0032,2.24,7.21,1111122 
SCCF RECON,ioos:station:SCCF:13:1,2010-04-07T12:00:00Z,26.5255,-82.0032,2.29,6.38,1111122 
SCCF RECON,ioos:station:SCCF:13:1,2010-04-07T13:00:00Z,26.5255,-82.0032,2.35,6.29,1111122 
SCCF RECON,ioos:station:SCCF:13:1,2010-04-07T14:00:00Z,26.5255,-82.0032,2.409,6.46,1111122 
SCCF RECON,ioos:station:SCCF:13:1,2010-04-07T15:00:00Z,26.5255,-82.0032,2.454,6.67,1111122 
SCCF RECON,ioos:station:SCCF:13:1,2010-04-07T16:00:00Z,26.5255,-82.0032,2.47,6.79,1111122 
SCCF RECON,ioos:station:SCCF:13:1,2010-04-07T17:00:00Z,26.5255,-82.0032,2.454,7.02,1111122 
SCCF RECON,ioos:station:SCCF:13:1,2010-04-07T18:00:00Z,26.5255,-82.0032,2.425,7.01,1111122 
SCCF RECON,ioos:station:SCCF:13:1,2010-04-07T19:00:00Z,26.5255,-82.0032,2.41,6.8,1111122 
SCCF RECON,ioos:station:SCCF:13:1,2010-04-07T20:00:00Z,26.5255,-82.0032,2.42,6.85,1111122 
SCCF RECON,ioos:station:SCCF:13:1,2010-04-07T21:00:00Z,26.5255,-82.0032,2.45,7.13,1111122 
SCCF RECON,ioos:station:SCCF:13:1,2010-04-07T22:00:00Z,26.5255,-82.0032,2.47,7.27,1111122 
SCCF RECON,ioos:station:SCCF:13:1,2010-04-07T23:00:00Z,26.5255,-82.0032,2.5,6.18,1111122 
SCCF RECON,ioos:station:SCCF:13:1,2010-04-08T00:00:00Z,26.5255,-82.0032,2.52,6.98,1111122 
SCCF RECON,ioos:station:SCCF:13:1,2010-04-08T01:00:00Z,26.5255,-82.0032,2.53,6.75,1111122 
SCCF RECON,ioos:station:SCCF:13:1,2010-04-08T02:00:00Z,26.5255,-82.0032,2.511,6.88,1111122 
SCCF RECON,ioos:station:SCCF:13:1,2010-04-08T03:00:00Z,26.5255,-82.0032,2.47,6.77,1111122 
SCCF RECON,ioos:station:SCCF:13:1,2010-04-08T04:00:00Z,26.5255,-82.0032,2.42,6.4,1111122 
SCCF RECON,ioos:station:SCCF:13:1,2010-04-08T05:00:00Z,26.5255,-82.0032,2.35,6.59,1111122 
SCCF RECON,ioos:station:SCCF:13:1,2010-04-08T06:00:00Z,26.5255,-82.0032,2.28,6.76,1111122 
SCCF RECON,ioos:station:SCCF:13:1,2010-04-08T07:00:00Z,26.5255,-82.0032,2.199,6.84,1111122 
SCCF RECON,ioos:station:SCCF:13:1,2010-04-08T08:00:00Z,26.5255,-82.0032,2.13,6.87,1111122 
SCCF RECON,ioos:station:SCCF:13:1,2010-04-08T09:00:00Z,26.5255,-82.0032,2.1,6.71,1111122 
SCCF RECON,ioos:station:SCCF:13:1,2010-04-08T10:00:00Z,26.5255,-82.0032,2.13,6.56,1111122 
SCCF RECON,ioos:station:SCCF:13:1,2010-04-08T11:00:00Z,26.5255,-82.0032,2.2,6.46,1111122 
SCCF RECON,ioos:station:SCCF:13:1,2010-04-08T12:00:00Z,26.5255,-82.0032,2.28,6.33,1111122 
SCCF RECON,ioos:station:SCCF:13:1,2010-04-08T13:00:00Z,26.5255,-82.0032,2.34,5.9,1111122 
SCCF RECON,ioos:station:SCCF:13:1,2010-04-08T14:00:00Z,26.5255,-82.0032,2.398,5.97,1111122 
SCCF RECON,ioos:station:SCCF:13:1,2010-04-08T15:00:00Z,26.5255,-82.0032,2.445,6.36,1111122 
SCCF RECON,ioos:station:SCCF:13:1,2010-04-08T16:00:00Z,26.5255,-82.0032,2.474,6.39,1111122 
SCCF RECON,ioos:station:SCCF:13:1,2010-04-08T17:00:00Z,26.5255,-82.0032,2.47,6.52,1111122 
SCCF RECON,ioos:station:SCCF:13:1,2010-04-08T18:00:00Z,26.5255,-82.0032,2.447,6.82,1111122 
SCCF RECON,ioos:station:SCCF:13:1,2010-04-08T19:00:00Z,26.5255,-82.0032,2.409,6.98,1111122 
SCCF RECON,ioos:station:SCCF:13:1,2010-04-08T20:00:00Z,26.5255,-82.0032,2.392,6.92,1111122 
SCCF RECON,ioos:station:SCCF:13:1,2010-04-08T21:00:00Z,26.5255,-82.0032,2.393,6.93,1111122 
SCCF RECON,ioos:station:SCCF:13:1,2010-04-08T22:00:00Z,26.5255,-82.0032,2.4,6.84,1111122 
SCCF RECON,ioos:station:SCCF:13:1,2010-04-08T23:00:00Z,26.5255,-82.0032,2.44,6.56,1111122 
SCCF RECON,ioos:station:SCCF:13:1,2010-04-09T00:00:00Z,26.5255,-82.0032,2.494,6.52,1111122 
SCCF RECON,ioos:station:SCCF:13:1,2010-04-09T01:00:00Z,26.5255,-82.0032,2.539,5.89,1111122 
SCCF RECON,ioos:station:SCCF:13:1,2010-04-09T02:00:00Z,26.5255,-82.0032,2.57,6.57,1111122 
SCCF RECON,ioos:station:SCCF:13:1,2010-04-09T03:00:00Z,26.5255,-82.0032,2.58,6.52,1111122 
SCCF RECON,ioos:station:SCCF:13:1,2010-04-09T04:00:00Z,26.5255,-82.0032,2.55,6.27,1111122 
SCCF RECON,ioos:station:SCCF:13:1,2010-04-09T05:00:00Z,26.5255,-82.0032,2.5,6.19,1111122 
SCCF RECON,ioos:station:SCCF:13:1,2010-04-09T06:00:00Z,26.5255,-82.0032,2.42,6.02,1111122 
SCCF RECON,ioos:station:SCCF:13:1,2010-04-09T07:00:00Z,26.5255,-82.0032,2.34,5.92,1111122 
SCCF RECON,ioos:station:SCCF:13:1,2010-04-09T08:00:00Z,26.5255,-82.0032,2.28,5.86,1111122 
SCCF RECON,ioos:station:SCCF:13:1,2010-04-09T09:00:00Z,26.5255,-82.0032,2.221,6.15,1111122 
SCCF RECON,ioos:station:SCCF:13:1,2010-04-09T10:00:00Z,26.5255,-82.0032,2.19,6.16,1111122 
SCCF RECON,ioos:station:SCCF:13:1,2010-04-09T11:00:00Z,26.5255,-82.0032,2.22,6.13,1111122 
SCCF RECON,ioos:station:SCCF:13:1,2010-04-09T12:00:00Z,26.5255,-82.0032,2.28,5.83,1111122 
SCCF RECON,ioos:station:SCCF:13:1,2010-04-09T13:00:00Z,26.5255,-82.0032,2.37,5.69,1111122 
SCCF RECON,ioos:station:SCCF:13:1,2010-04-09T14:00:00Z,26.5255,-82.0032,2.453,5.66,1111122 
SCCF RECON,ioos:station:SCCF:13:1,2010-04-09T15:00:00Z,26.5255,-82.0032,2.498,5.81,1111122 
SCCF RECON,ioos:station:SCCF:13:1,2010-04-09T16:00:00Z,26.5255,-82.0032,2.515,5.95,1111122 
SCCF RECON,ioos:station:SCCF:13:1,2010-04-09T17:00:00Z,26.5255,-82.0032,2.511,6.11,1111122 
SCCF RECON,ioos:station:SCCF:13:1,2010-04-09T18:00:00Z,26.5255,-82.0032,2.475,5.98,1111122 
SCCF RECON,ioos:station:SCCF:13:1,2010-04-09T19:00:00Z,26.5255,-82.0032,2.396,6.03,1111122 
SCCF RECON,ioos:station:SCCF:13:1,2010-04-09T20:00:00Z,26.5255,-82.0032,2.3,6.37,1111122 
SCCF RECON,ioos:station:SCCF:13:1,2010-04-09T21:00:00Z,26.5255,-82.0032,2.27,6.5,1111122 
SCCF RECON,ioos:station:SCCF:13:1,2010-04-09T22:00:00Z,26.5255,-82.0032,2.276,6.27,1111122 
SCCF RECON,ioos:station:SCCF:13:1,2010-04-09T23:00:00Z,26.5255,-82.0032,2.31,6.26,1111122 
SCCF RECON,ioos:station:SCCF:13:1,2010-04-10T00:00:00Z,26.5255,-82.0032,2.35,5.99,1111122 
SCCF RECON,ioos:station:SCCF:13:1,2010-04-10T01:00:00Z,26.5255,-82.0032,2.38,5.32,1111122 
SCCF RECON,ioos:station:SCCF:13:1,2010-04-10T02:00:00Z,26.5255,-82.0032,2.43,5.52,1111122 
SCCF RECON,ioos:station:SCCF:13:1,2010-04-10T03:00:00Z,26.5255,-82.0032,2.46,5.46,1111122 
SCCF RECON,ioos:station:SCCF:13:1,2010-04-10T04:00:00Z,26.5255,-82.0032,2.47,5.91,1111122 
SCCF RECON,ioos:station:SCCF:13:1,2010-04-10T05:00:00Z,26.5255,-82.0032,2.43,5.67,1111122 
SCCF RECON,ioos:station:SCCF:13:1,2010-04-10T06:00:00Z,26.5255,-82.0032,2.34,5.89,1111122 
SCCF RECON,ioos:station:SCCF:13:1,2010-04-10T07:00:00Z,26.5255,-82.0032,2.26,5.52,1111122 
SCCF RECON,ioos:station:SCCF:13:1,2010-04-10T08:00:00Z,26.5255,-82.0032,2.193,5.68,1111122 
SCCF RECON,ioos:station:SCCF:13:1,2010-04-10T09:00:00Z,26.5255,-82.0032,2.13,5.81,1111122 
SCCF RECON,ioos:station:SCCF:13:1,2010-04-10T10:00:00Z,26.5255,-82.0032,2.08,6.0,1111122 
SCCF RECON,ioos:station:SCCF:13:1,2010-04-10T11:00:00Z,26.5255,-82.0032,2.081,6.1,1111122 
SCCF RECON,ioos:station:SCCF:13:1,2010-04-10T12:00:00Z,26.5255,-82.0032,2.15,6.0,1111122 
SCCF RECON,ioos:station:SCCF:13:1,2010-04-10T13:00:00Z,26.5255,-82.0032,2.25,6.05,1111122 
SCCF RECON,ioos:station:SCCF:13:1,2010-04-10T14:00:00Z,26.5255,-82.0032,2.31,5.71,1111122 
SCCF RECON,ioos:station:SCCF:13:1,2010-04-10T15:00:00Z,26.5255,-82.0032,2.38,5.18,1111122 
SCCF RECON,ioos:station:SCCF:13:1,2010-04-10T16:00:00Z,26.5255,-82.0032,2.418,5.73,1111122 
SCCF RECON,ioos:station:SCCF:13:1,2010-04-10T17:00:00Z,26.5255,-82.0032,2.425,5.86,1111122 
SCCF RECON,ioos:station:SCCF:13:1,2010-04-10T18:00:00Z,26.5255,-82.0032,2.396,6.39,1111122 
SCCF RECON,ioos:station:SCCF:13:1,2010-04-10T19:00:00Z,26.5255,-82.0032,2.342,6.12,1111122 
SCCF RECON,ioos:station:SCCF:13:1,2010-04-10T20:00:00Z,26.5255,-82.0032,2.27,6.33,1111122 
SCCF RECON,ioos:station:SCCF:13:1,2010-04-10T21:00:00Z,26.5255,-82.0032,2.2,6.37,1111122 
SCCF RECON,ioos:station:SCCF:13:1,2010-04-10T22:00:00Z,26.5255,-82.0032,2.16,6.77,1111122 
SCCF RECON,ioos:station:SCCF:13:1,2010-04-10T23:00:00Z,26.5255,-82.0032,2.18,6.87,1111122 
SCCF RECON,ioos:station:SCCF:13:1,2010-04-11T00:00:00Z,26.5255,-82.0032,2.245,6.83,1111122 
SCCF RECON,ioos:station:SCCF:13:1,2010-04-11T01:00:00Z,26.5255,-82.0032,2.321,5.73,1111122 
SCCF RECON,ioos:station:SCCF:13:1,2010-04-11T02:00:00Z,26.5255,-82.0032,2.39,5.89,1111122 
SCCF RECON,ioos:station:SCCF:13:1,2010-04-11T03:00:00Z,26.5255,-82.0032,2.414,6.06,1111122 
SCCF RECON,ioos:station:SCCF:13:1,2010-04-11T04:00:00Z,26.5255,-82.0032,2.43,6.13,1111122 
SCCF RECON,ioos:station:SCCF:13:1,2010-04-11T05:00:00Z,26.5255,-82.0032,2.428,6.23,1111122 
SCCF RECON,ioos:station:SCCF:13:1,2010-04-11T06:00:00Z,26.5255,-82.0032,2.38,6.23,1111122 
SCCF RECON,ioos:station:SCCF:13:1,2010-04-11T07:00:00Z,26.5255,-82.0032,2.29,6.12,1111122 
SCCF RECON,ioos:station:SCCF:13:1,2010-04-11T08:00:00Z,26.5255,-82.0032,2.21,5.84,1111122 
SCCF RECON,ioos:station:SCCF:13:1,2010-04-11T09:00:00Z,26.5255,-82.0032,2.15,5.96,1111122 
SCCF RECON,ioos:station:SCCF:13:1,2010-04-11T10:00:00Z,26.5255,-82.0032,2.092,6.19,1111122 
SCCF RECON,ioos:station:SCCF:13:1,2010-04-11T11:00:00Z,26.5255,-82.0032,2.07,6.25,1111122 
SCCF RECON,ioos:station:SCCF:13:1,2010-04-11T12:00:00Z,26.5255,-82.0032,2.12,6.3,1111122 
SCCF RECON,ioos:station:SCCF:13:1,2010-04-11T13:00:00Z,26.5255,-82.0032,2.27,6.17,1111122 
SCCF RECON,ioos:station:SCCF:13:1,2010-04-11T14:00:00Z,26.5255,-82.0032,2.35,5.28,1111122 
SCCF RECON,ioos:station:SCCF:13:1,2010-04-11T15:00:00Z,26.5255,-82.0032,2.404,5.68,1111122 
SCCF RECON,ioos:station:SCCF:13:1,2010-04-11T16:00:00Z,26.5255,-82.0032,2.456,5.88,1111122 
SCCF RECON,ioos:station:SCCF:13:1,2010-04-11T17:00:00Z,26.5255,-82.0032,2.391,6.02,1111122 
SCCF RECON,ioos:station:SCCF:13:1,2010-04-11T18:00:00Z,26.5255,-82.0032,2.28,6.26,1111122 
SCCF RECON,ioos:station:SCCF:13:1,2010-04-11T19:00:00Z,26.5255,-82.0032,2.189,6.23,1111122 
SCCF RECON,ioos:station:SCCF:13:1,2010-04-11T20:00:00Z,26.5255,-82.0032,2.15,6.45,1111122 